Location: Chateh
(58.6667°N, 118.6000°W)
Time: 10:14:44
(UTC+00:00)

O/OREOS (USA 219) - Pass Details

Date: 12 December 2023
Orbit: 621 x 646 km, 72.0° (Epoch: 22 May)

Event Time Altitude Azimuth Distance (km) Brightness Sun altitude
Exits shadow 15:28:29 - 317° (NW) 2,113 ? -7.6°
Reaches altitude 10° 15:28:45 10° 316° (NW) 2,014 ? -7.6°
Maximum altitude 15:33:01 44° 245° (WSW) 882 ? -7.1°
Drops below altitude 10° 15:37:18 10° 174° (S) 2,014 ? -6.6°
Sets 15:39:38 0° 168° (SSE) 2,922 ? -6.4°
